Regional Weather Roundup
Issued by NWS Sterling, VA

Home | Current Version | Previous Version | Graphics & Text | Print | Product List | Glossary On
Versions: 1 2 3 4 5 6 7 8 9 10 11 12 13 14 15 16 17 18 19 20 21 22 23 24 25 26 27 28 29 30 31 32 33 34 35 36 37 38 39 40 41 42 43 44 45 46 47 48 49 50
000
ASUS41 KLWX 222310
RWRLWX

REGIONAL WEATHER ROUNDUP
NATIONAL WEATHER SERVICE BALTIMORE MD/WASHINGTON DC
700 PM EDT FRI MAY 22 2015

Note: "FAIR" indicates few or no clouds below 12,000 feet
with no significant weather and/or obstructions to visibility.
 TC=TEMPERATURE CELSIUS

 * =Non NWS site. Station does not report precipitation (e.g. rain,
    snow, etc.), thunder, or fog.

DCZ001-MDZ009-015-VAZ040>042-051-053>054-230000-
WASHINGTON METRO

CITY           SKY/WX    TMP DP  RH WIND       PRES   REMARKS
WASHINGTON NAT MOSUNNY   77  38  24 W17G28    30.10R
DULLES         MOSUNNY   73  39  29 W15G24    30.11R
ANDREWS AFB    MOSUNNY   74  40  30 W15       30.09R
FT BELVOIR     MOSUNNY   75  42  31 W8        30.10R
QUANTICO       MOSUNNY   75  43  31 W6        30.12R
COLLEGE PARK*  MOSUNNY   73  37  27 W14G20    30.09R
LEESBURG*      MOSUNNY   72  45  37 W8G24     30.11S
MANASSAS*      MOSUNNY   75  39  27 W16       30.11R
GAITHERSBURG*  MOSUNNY   70  43  37 W14       30.14R

$$

MDZ006>007-011-014-230000-
BALTIMORE METRO

CITY           SKY/WX    TMP DP  RH WIND       PRES   REMARKS
BWI AIRPORT    MOSUNNY   72  41  32 NW15G21   30.08R
MD SCIENCE CTR   N/A     73  39  29 MISG      30.08R
MARTIN STATE   MOSUNNY   73  43  33 W20G28    30.07R
ANNAPOLIS      PTSUNNY   73  39  29 W12G20    30.08R
FORT MEADE*    MOSUNNY   70  41  35 W9        30.11R

$$

MDZ012-015-019>023-230000-
MARYLAND EASTERN SHORE

CITY           SKY/WX    TMP DP  RH WIND       PRES   REMARKS
OCEAN CITY     SUNNY     70  45  40 W8        30.10R
SALISBURY      SUNNY     70  43  37 SW13G22   30.10R
BAY BRIDGE AP*   N/A    N/A N/A N/A W10G21    30.08R
CAMBRIDGE*     SUNNY     72  43  35 W7        30.09R
EASTON*        SUNNY     72  48  43 W8        30.12R

$$

MDZ017>025-230000-
SOUTHERN MARYLAND

CITY           SKY/WX    TMP DP  RH WIND       PRES   REMARKS
PATUXENT RIVER MOSUNNY   72  44  36 W10G20    30.10S
ST INIGOES     SUNNY     72  47  40 SW12      30.11R
LEONARDTOWN*   SUNNY     72  43  35 W9        30.13R

$$

MDZ003>005-230000-
NORTH CENTRAL MARYLAND

CITY           SKY/WX    TMP DP  RH WIND       PRES   REMARKS
FREDERICK*     MOSUNNY   72  48  43 NW10G16   30.12R
HAGERSTOWN APT MOSUNNY   70  41  34 W17       30.09R
WESTMINSTER*   SUNNY     70  41  35 NW9G17    30.09S

$$

MDZ501>502-230000-
WESTERN MARYLAND

CITY           SKY/WX    TMP DP  RH WIND       PRES   REMARKS
OAKLAND*       CLOUDY    55  52  88 NW6       30.20R
CUMBERLAND*    MOSUNNY   68  43  40 NW8G18    30.18R

$$

VAZ025>031-230000-
SHENANDOAH VALLEY

CITY           SKY/WX    TMP DP  RH WIND       PRES   REMARKS
WINCHESTER*    SUNNY     70  32  24 W20G31    30.14R
FRONT ROYAL*   FAIR      70  41  35 W6        30.13S
LURAY*         MOCLDY    72  43  35 W5        30.15R
NEW MARKET*    MOCLDY    71  40  32 W3        30.14R
STAUNTON*      SUNNY     71  36  28 NW13      30.18R
WAYNESBORO*    FAIR      70  37  29 NW5       30.16S

$$

WVZ021-048>050-054>055-230000-
EASTERN WEST VIRGINIA PANHANDLE

CITY           SKY/WX    TMP DP  RH WIND       PRES   REMARKS
MARTINSBURG    PTSUNNY   70  45  40 W15G22    30.12R
PETERSBURG*    MOSUNNY   66  43  43 N5        30.17S

$$

VAZ036>039-050-230000-
CENTRAL FOOTHILLS

CITY           SKY/WX    TMP DP  RH WIND       PRES   REMARKS
CHARLOTTESVILL SUNNY     74  38  27 W3        30.13R
CULPEPER*      CLOUDY    72  40  32 NW8       30.13R
ORANGE*        MOSUNNY   73  46  38 S8        30.14R
GORDONSVILLE*  MOCLDY    70  48  45 S6        30.13R
WARRENTON*     CLOUDY    73  48  41 NW5       30.12R

$$

VAZ055>057-230000-
NORTH AND CENTRAL PIEDMONT

CITY           SKY/WX    TMP DP  RH WIND       PRES   REMARKS
FREDERICKSBRG* SUNNY     74  46  36 SW8       30.11S
STAFFORD*      PTSUNNY   71  44  37 SW3       30.16R

$$

NCZ024-NYZ072-PAZ021-071-VAZ022-071-230000-
OTHER REGIONAL OBSERVATIONS

CITY           SKY/WX    TMP DP  RH WIND       PRES   REMARKS
NEW YORK CITY  MOSUNNY   70  39  32 W14G29    29.99R
PHILADELPHIA   MOSUNNY   74  37  26 W17G25    30.02R
PITTSBURGH     MOSUNNY   63  27  25 NW21G28   30.21R
ROANOKE        MOSUNNY   71  38  29 W12       30.22R
RICHMOND       MOSUNNY   74  41  30 SW8       30.15R
RALEIGH        MOSUNNY   72  43  35 NW6       30.20R

$$

ANZ530>537-230000-
MARINE OBSERVATIONS

STATION/POSITION TIME  TEMP    WIND        PRES
                       AIR SEA DIR/SP/G
                 (UTC) (F)     (DEG/KT/KT) (MB)
THOMAS PT LIGHT  2300   74 66  290/ 17/ 19 1019.0R
BALT KEY BRIDGE  2200   73     280/ 17/ 21 1017.0R
LEWISETTA        2200   72 70              1019.5R
SOLOMONS ISLAND  2200      69                N/A
PINEY POINT      2200          300/  8/ 10   N/A

$$




USA.gov is the U.S. government's official web portal to all federal, state and local government web resources and services.